Voltar ao catálogo

STARLINK-4415

AtivoComunicaçõesSSO
NORAD 53465·PAYLOAD·🇺🇸 United States

Lançado Aug 12, 2022 de Vandenberg Space Force Base

Loading…

Próximas Passagens (próximas 24 horas)

TLE

AtualizadoSource: CelesTrak SupGP

Época: Sep 14, 2026, 21:31 UTC

1 53465C 22099A   26257.89701389 -.00035826  00000+0 -11117-2 0  2577
2 53465  97.2862  15.5738 0000920  91.4004 190.2084 15.33468925    18

Acompanhe STARLINK-4415 em tempo real com AllMySat

Download on the App Store